ATLAS 5 CENTAUR DEB, 49363

Orbit data source: Space-Track

ATLAS 5 CENTAUR DEB, 49363 is space debris in HEO originally from a launch on Wed, 17 Oct 2018 UTC launched from the Air Force Eastern Test Range (AFETR). Debris objects in space refer to the collection of defunct objects orbiting the Earth. Examples of debris include non-operational satellites, rocket bodies, and fragments generated from explosions, collisions, or faulty payload assembly.

Loading next visibility...
Identifier
49363, 2018-079FQ
Orbit
HEO
Country
Flag of USUS
Related business
Flag of USUnited Launch Alliance/Lockheed Martin (US)
Manufacturer
ULA Decatur
Mission
Spacecraft
Bus & Motor
Unknown
Mass
Unknown
Launch date (UTC)
2018-10-17 (7 years ago)
Launch vehicle
Unknown
Launch site
Air Force Eastern Test Range (AFETR)
Object type
Payload
Rocket body
Debris
Shape & HBR
Unknown shape, 1.1 m
Radar Cross Section
RCS unknown

Expand to show TLE details & history
Last TLE update: 2 days ago

TLE from 2 days ago
0 ATLAS 5 CENTAUR DEB
1 49363U 18079FQ  26071.92541028 -.00000199  00000-0  00000-0 0  9997
2 49363  12.9936  42.5980 4879481 317.6528  13.4476  1.83692580 30435
Epoch: 2026-03-12T22:12Z
TLE epoch observation values (Epoch: 2026-03-12T22:12:35.448Z)
Latitude
-0.00006°
Longitude
-101.07069°
Altitude
9,372.003 km
Speed
6.038 km/s
True Right ascension
02h 50m 34s
True Declination
0° 00' 00"
Sunlit
Object was in daylight at epoch
Visualization orbit readout
Latitude
Unknown
Longitude
Unknown
Altitude
Unknown
Speed
Unknown
Apparent Right ascension
Unknown
Apparent Declination
Unknown
Sunlit
N/A
Visualization observer readout
Local Sidereal Time
00:05:18
Azimuth
Unknown
Elevation
Unknown
Doppler factor
Unknown
Orbital elements
Apogee altitude
35,529.74 km
Perigee altitude
8,043.742 km
Semi-major axis
28,164.878 km
Eccentricity
0.48795
Inclination
12.9936°
RAAN
42.598°
Arg. of periapsis
317.6528°
True anomaly
42.13984°
Mean anomaly
13.4476°
Eccentric anomaly
25.47061°
Mean motion
0.45918 °/min
Orbital period
784.01 mins
BSTAR
0
Loading maneuver chart data...
Computing Atmospheric mass density...

Documentation

Showing up to 5 results
|